sat.trackr.live / text

‹ back to catalog

KUIPER-00528

NORAD 69603 · 2026-140M

PAYLOAD ACTIVE UNKNOWN

§ Identity

Operator
Country
US
Launch date
2026-06-17
Launch site
FRGUI
Launch vehicle
Mass (kg)
RCS (m²)

External: N2YO · Heavens-Above · Gunter

§ Orbital elements

Epoch: 2026-09-20T04:15:28.213632Z

Period
97.30 min
Inclination
51.9038°
Eccentricity
0.0000323
Mean motion
14.79944701 rev/d
Perigee alt
629.3 km
Apogee alt
629.7 km
Semi-major
7,007.6 km
B*
2.7526e-4
RAAN
318.1388°
Arg perigee
66.4370°
Mean anomaly
293.6627°
Rev number
1,558

§ Raw data

KUIPER-005281 69603U 26140M   26263.17740988  .00001878  00000+0  27526-3 0  99982 69603  51.9038 318.1388 0000323  66.4370 293.6627 14.79944701 15588

JSON: /api/v1/satellites/69603 · /tle

For live sub-satellite position, see the globe view (requires WebGL).

§ Visibility from observer

Set your observer location to see the next 7 days of passes ≥ 10°. The values pass through the URL so the page stays shareable.

No JS? Fill the form by hand. The geolocation button needs JavaScript.